TimeCDT,TemperatureF,Dew PointF,Humidity,Sea Level PressureIn,VisibilityMPH,Wind Direction,Wind SpeedMPH,Gust SpeedMPH,PrecipitationIn,Events,Conditions,WindDirDegrees,DateUTC
12:53 AM,53.1,43.0,69,30.08,10.0,SSE,5.8,-,N/A,,Clear,150,2013-10-10 05:53:00
1:53 AM,52.0,43.0,71,30.09,10.0,Calm,Calm,-,N/A,,Clear,0,2013-10-10 06:53:00
2:53 AM,51.1,43.0,74,30.09,10.0,SE,4.6,-,N/A,,Clear,140,2013-10-10 07:53:00
3:53 AM,48.0,43.0,83,30.08,10.0,SSE,4.6,-,N/A,,Clear,150,2013-10-10 08:53:00
4:53 AM,46.0,42.1,86,30.09,10.0,SE,3.5,-,N/A,,Clear,140,2013-10-10 09:53:00
5:53 AM,46.0,43.0,89,30.09,10.0,SE,4.6,-,N/A,,Clear,130,2013-10-10 10:53:00
6:53 AM,45.0,42.1,90,30.10,10.0,SE,4.6,-,N/A,,Clear,130,2013-10-10 11:53:00
7:53 AM,45.0,43.0,93,30.11,9.0,SE,4.6,-,N/A,,Clear,130,2013-10-10 12:53:00
8:53 AM,55.0,50.0,83,30.11,10.0,SE,3.5,-,N/A,,Clear,130,2013-10-10 13:53:00
9:53 AM,62.1,52.0,70,30.10,10.0,SE,5.8,-,N/A,,Clear,140,2013-10-10 14:53:00
10:53 AM,66.9,52.0,59,30.09,10.0,SSE,6.9,-,N/A,,Clear,160,2013-10-10 15:53:00
11:53 AM,70.0,53.1,55,30.08,10.0,South,6.9,-,N/A,,Clear,180,2013-10-10 16:53:00
12:53 PM,73.0,54.0,51,30.05,10.0,South,10.4,-,N/A,,Clear,170,2013-10-10 17:53:00
1:53 PM,75.0,52.0,44,30.02,10.0,SSE,10.4,-,N/A,,Clear,160,2013-10-10 18:53:00
2:53 PM,75.9,51.1,42,30.00,10.0,SSE,12.7,-,N/A,,Clear,160,2013-10-10 19:53:00
3:53 PM,77.0,48.9,37,29.99,10.0,South,10.4,-,N/A,,Clear,190,2013-10-10 20:53:00
4:53 PM,75.9,48.9,38,29.97,10.0,SSE,10.4,-,N/A,,Clear,160,2013-10-10 21:53:00
5:53 PM,72.0,50.0,46,29.96,10.0,SE,9.2,-,N/A,,Clear,140,2013-10-10 22:53:00
6:53 PM,64.0,48.9,58,29.96,10.0,SE,6.9,-,N/A,,Clear,140,2013-10-10 23:53:00
7:53 PM,60.1,50.0,69,29.96,10.0,SE,6.9,-,N/A,,Clear,130,2013-10-11 00:53:00
8:53 PM,57.9,48.9,72,29.96,10.0,SE,6.9,-,N/A,,Clear,140,2013-10-11 01:53:00
9:53 PM,60.1,51.1,72,29.95,10.0,SE,9.2,-,N/A,,Clear,140,2013-10-11 02:53:00
10:53 PM,61.0,52.0,72,29.95,10.0,SSE,8.1,-,N/A,,Clear,150,2013-10-11 03:53:00
11:53 PM,61.0,53.1,75,29.94,10.0,SSE,10.4,-,N/A,,Clear,160,2013-10-11 04:53:00